Content
SEND FEEDBACK

Daily
Averages
Monthly
Summary
United States of America

PHOENIX, ARIZONA


Home > North America > United States > Arizona
Elevation: 1110 feet     Latitude: 33 26N     Longitude: 112 01W

WEATHER
 
SELECT A DAY
Number of Records: 170,971;   Date Range: 1/1/95 - 7/7/14
 
SHARE

PRINT THIS DATA

[ ← Previous Day ]
WEATHER ALMANAC - JANUARY 31, 2013
[ Next Day → ]
[ °C ]   °F
Weather ElementAverageHighLow
Temperature55 °F68 °F (3:51 pm)43 °F (5:51 am)
Dewpoint34.5 °F41 °F (10:51 pm)28.9 °F (2:51 pm)
Humidity49.6 %73 % (3:51 am)23 % (3:51 pm)
Barometer30.16 in30.25 in (1:51 am)30.07 in (5:51 pm)
Wind Speed3.5 mph8.1 mph (2:51 pm)
Weather ElementAverage
Visibility10 mi
Wind DirectionSSE (157.4 °)

Weather ElementTotal
Precipitation---
Heating Degree Days9.5 (Base 65)
Growing Degree Days5.5 (Base 50)
Averaged from 23 records on January 31, 2013
WEATHER CONDITIONS BREAKOUT
WIND DIRECTION BREAKOUT
WEATHER BY HOUR - JANUARY 31, 2013
[ °C ]   °F
Local TimeTemperatureDewpointHumidityBarometerVisibilityWind DirectionWind SpeedGust SpeedPrecipitationEventsConditions
1:51 AM46.9 °F35.1 °F63 %30.25 in10.0 miEast (80°)4.6 mphClear
2:51 AM45.0 °F36.0 °F71 %30.24 in10.0 miEast (100°)4.6 mphClear
3:51 AM44.1 °F36.0 °F73 %30.22 in10.0 miESE (110°)3.5 mphClear
4:51 AM44.1 °F35.1 °F71 %30.21 in10.0 miESE (120°)4.6 mphClear
5:51 AM43.0 °F34.0 °F71 %30.21 in10.0 miCalmClear
6:51 AM43.0 °F34.0 °F71 %30.21 in10.0 miEast (100°)3.5 mphPartly Cloudy
7:51 AM44.1 °F34.0 °F68 %30.21 in10.0 miCalmScattered Clouds
8:51 AM46.9 °F36.0 °F66 %30.21 in10.0 miCalmScattered Clouds
9:51 AM50.0 °F33.1 °F52 %30.21 in10.0 miCalmMostly Cloudy
10:51 AM55.0 °F33.1 °F43 %30.22 in10.0 miWSW (250°)3.5 mphMostly Cloudy
11:51 AM59.0 °F30.9 °F35 %30.21 in10.0 miNNW (330°)4.6 mphMostly Cloudy
12:51 PM62.1 °F30.9 °F31 %30.17 in10.0 miNW (320°)6.9 mphMostly Cloudy
1:51 PM64.9 °F30.9 °F28 %30.13 in10.0 miWNW (290°)5.8 mphMostly Cloudy
2:51 PM66.9 °F28.9 °F24 %30.11 in10.0 miNW (310°)8.1 mphMostly Cloudy
3:51 PM68.0 °F28.9 °F23 %30.09 in10.0 miNW (310°)5.8 mphMostly Cloudy
4:51 PM68.0 °F32.0 °F26 %30.08 in10.0 miWSW (240°)4.6 mphMostly Cloudy
5:51 PM64.9 °F37.0 °F36 %30.07 in10.0 miWSW (240°)6.9 mphMostly Cloudy
6:51 PM62.1 °F36.0 °F38 %30.10 in10.0 miSW (230°)4.6 mphMostly Cloudy
7:51 PM60.1 °F37.0 °F42 %30.11 in10.0 miWest (260°)3.5 mphScattered Clouds
8:51 PM60.1 °F37.0 °F42 %30.10 in10.0 miCalmScattered Clouds
9:51 PM60.1 °F36.0 °F41 %30.09 in10.0 miNNW (330°)4.6 mphPartly Cloudy
10:51 PM54.0 °F41.0 °F62 %30.11 in10.0 miCalmClear
11:51 PM52.0 °F39.9 °F63 %30.12 in10.0 miCalmClear
Hourly data recorded from KPHX, located miles away from Phoenix, Arizona







STORIES FROM OUR PARTNERS